Houghton, MI

1:41 PM EDT on May 29, 2017 (GMT -0400)
Houghton County Memorial

Weather History for KCMX - May, 2014

Change the Weather History Date:

Tuesday, May 13, 2014

  Actual Average Record
Temperature  
Mean Temperature 44 °F -  
Max Temperature 51 °F 59 °F 82 °F (1987)
Min Temperature 37 °F 40 °F 23 °F (1953)
Degree Days  
Heating Degree Days 21    
Moisture  
Dew Point 37 °F    
Average Humidity 77    
Maximum Humidity 100    
Minimum Humidity 52    
Precipitation  
Precipitation 0.00 in - - ()
Sea Level Pressure  
Sea Level Pressure 29.82 in    
Wind  
Wind Speed 17 mph (West)    
Max Wind Speed 31 mph    
Max Gust Speed 44 mph    
Visibility 7 miles    
Events Fog    
Averages and records for this station are not official NWS values.
T = Trace of Precipitation, MM = Missing Value Source: NWS Daily Summary

Daily Weather History Graph

Daily Weather History Graph

Search for Another Location

Airport or City:

Trip Planner

Search our weather history database for the weather conditions in past years. The results will help you decide how hot, cold, wet, or windy it might be!

Date:

Astronomy

May. 13, 2014 Rise Set
Actual Time 6:20 AM EDT 9:20 PM EDT
Civil Twilight 5:44 AM EDT 9:56 PM EDT
Nautical Twilight 4:58 AM EDT 10:43 PM EDT
Astronomical Twilight 4:02 AM EDT 11:39 PM EDT
Moon 8:17 PM EDT (5/13) 5:43 AM EDT (5/13)
Length of Visible Light 16h 12m
Length of Day
15h 00m
Waxing Gibbous, 98% of the Moon is Illuminated
May 13
Waxing Gibbous
May 14
Full
May 21
Last Quarter
May 28
New
Jun 5
First Quarter

Hourly Weather History & Observations

Time (EDT) Temp. Windchill Dew Point Humidity Pressure Visibility Wind Dir Wind Speed Gust Speed Precip Events Conditions
12:53 AM 37.0 °F 28.1 °F 35.1 °F 93% 29.83 in 0.2 mi ESE 15.0 mph - N/A Fog Fog
1:53 AM 37.9 °F 29.2 °F 36.0 °F 93% 29.77 in 0.2 mi East 15.0 mph - N/A Fog Fog
2:53 AM 39.0 °F 31.0 °F 37.9 °F 96% 29.73 in 0.2 mi East 13.8 mph - N/A Fog Fog
3:53 AM 39.9 °F 33.4 °F 37.9 °F 93% 29.69 in 0.2 mi ESE 10.4 mph 18.4 mph N/A Fog Fog
4:53 AM 39.9 °F 31.4 °F 39.0 °F 97% 29.67 in 0.2 mi ENE 16.1 mph 20.7 mph N/A Fog Fog
5:53 AM 43.0 °F 36.4 °F 43.0 °F 100% 29.68 in 0.5 mi WNW 12.7 mph - N/A Fog Fog
6:00 AM 44.6 °F 40.7 °F 42.8 °F 93% 29.65 in 0.5 mi West 6.9 mph - N/A Fog Fog
6:17 AM 42.8 °F 36.6 °F 41.0 °F 93% 29.67 in 0.2 mi WNW 11.5 mph - N/A Fog Fog
6:31 AM 42.8 °F 36.6 °F 41.0 °F 93% 29.67 in 1.0 mi WNW 11.5 mph - N/A   Mist
6:34 AM 42.8 °F 35.8 °F 41.0 °F 93% 29.67 in 4.0 mi WNW 13.8 mph 19.6 mph N/A   Overcast
6:53 AM 42.1 °F 33.6 °F 39.9 °F 92% 29.71 in 8.0 mi WNW 18.4 mph 25.3 mph N/A   Overcast
7:53 AM 39.2 °F 28.7 °F 37.4 °F 93% 29.73 in 10.0 mi West 23.0 mph 34.5 mph N/A   Overcast
8:53 AM 42.8 °F 36.2 °F 39.2 °F 87% 29.76 in 10.0 mi West 12.7 mph 23.0 mph N/A   Overcast
9:10 AM 42.8 °F 37.0 °F 39.2 °F 87% 29.77 in 10.0 mi West 10.4 mph 18.4 mph N/A   Overcast
9:53 AM 45.0 °F 37.6 °F 39.0 °F 80% 29.81 in 10.0 mi WSW 17.3 mph 23.0 mph N/A   Overcast
10:02 AM 44.6 °F 36.9 °F 37.4 °F 76% 29.78 in 10.0 mi WSW 18.4 mph 27.6 mph N/A   Overcast
11:53 AM 46.4 °F 38.3 °F 39.2 °F 76% 29.79 in 10.0 mi West 23.0 mph 32.2 mph N/A   Overcast
12:53 PM 45.0 °F 36.4 °F 37.9 °F 76% 29.84 in 10.0 mi West 23.0 mph 34.5 mph N/A   Overcast
1:32 PM 46.4 °F 37.0 °F 35.6 °F 66% 29.82 in 10.0 mi West 31.1 mph 39.1 mph N/A   Overcast
1:53 PM 45.0 °F 35.2 °F 35.1 °F 68% 29.86 in 10.0 mi West 29.9 mph 38.0 mph N/A   Overcast
2:53 PM 46.0 °F 37.0 °F 34.0 °F 63% 29.89 in 10.0 mi West 27.6 mph 41.4 mph N/A   Overcast
3:35 PM 48.2 °F - 35.6 °F 62% 29.87 in 10.0 mi West 28.8 mph 43.7 mph N/A   Scattered Clouds
3:53 PM 48.0 °F - 34.0 °F 58% 29.91 in 10.0 mi West 31.1 mph 43.7 mph N/A   Partly Cloudy
4:53 PM 48.9 °F - 34.0 °F 56% 29.92 in 10.0 mi West 27.6 mph 39.1 mph N/A   Clear
5:53 PM 51.1 °F - 34.0 °F 52% 29.94 in 10.0 mi West 24.2 mph 33.4 mph N/A   Partly Cloudy
6:53 PM 50.0 °F - 34.0 °F 54% 29.95 in 10.0 mi West 23.0 mph 31.1 mph N/A   Clear
7:53 PM 50.0 °F - 34.0 °F 54% 29.96 in 10.0 mi West 19.6 mph 28.8 mph N/A   Mostly Cloudy
8:53 PM 48.0 °F - 33.1 °F 56% 29.98 in 10.0 mi West 20.7 mph 26.5 mph N/A   Clear
9:53 PM 46.0 °F 41.4 °F 33.1 °F 61% 30.00 in 10.0 mi West 9.2 mph - N/A   Clear
10:53 PM 44.1 °F 39.0 °F 32.0 °F 63% 30.01 in 10.0 mi West 9.2 mph - N/A   Clear
11:53 PM 43.0 °F 36.0 °F 32.0 °F 65% 30.03 in 10.0 mi West 13.8 mph - N/A   Clear